Location: Ammerl�gen
(47.2167°N, 9.6000°E)
Time: 10:33:59
(UTC+00:00)

Cosmos 2221 - Pass Details

Date: 21 April 2021
Orbit: 593 x 615 km, 82.5° (Epoch: 06 May)

Event Time Altitude Azimuth Distance (km) Brightness Sun altitude
Exits shadow 21:29:48 67° 336° (NNW) 650 2.7 -25.7°
Drops below altitude 10° 21:33:37 10° 6° (N) 1,943 5.8 -26.0°
Sets 21:35:51 0° 8° (N) 2,853 6.7 -26.2°
